Westhampton Beach, NY

9:15 AM EDT on October 20, 2017 (GMT -0400)
The Gabreski

Weather History for KFOK - May, 2014

Change the Weather History Date:

Monday, May 19, 2014

  Actual Average Record
Temperature  
Mean Temperature 58 °F -  
Max Temperature 70 °F 63 °F 86 °F (1998)
Min Temperature 42 °F 44 °F 30 °F (2002)
Degree Days  
Heating Degree Days 8    
Growing Degree Days 8 (Base 50)    
Moisture  
Dew Point 35 °F    
Average Humidity 46    
Maximum Humidity 73    
Minimum Humidity 28    
Precipitation  
Precipitation 0.00 in - - ()
Sea Level Pressure  
Sea Level Pressure 30.12 in    
Wind  
Wind Speed 9 mph (NNW)    
Max Wind Speed 23 mph    
Max Gust Speed 34 mph    
Visibility 10 miles    
Events Rain    
Averages and records for this station are not official NWS values.
T = Trace of Precipitation, MM = Missing Value Source: NWS Daily Summary

Daily Weather History Graph

Daily Weather History Graph

Search for Another Location

Airport or City:

Trip Planner

Search our weather history database for the weather conditions in past years. The results will help you decide how hot, cold, wet, or windy it might be!

Date:

Astronomy

May. 19, 2014 Rise Set
Actual Time 5:29 AM EDT 8:04 PM EDT
Civil Twilight 4:58 AM EDT 8:36 PM EDT
Nautical Twilight 4:18 AM EDT 9:16 PM EDT
Astronomical Twilight 3:34 AM EDT 10:00 PM EDT
Moon No Moon Rise 10:24 AM EDT (5/19)
Length of Visible Light 15h 38m
Length of Day
14h 35m
Waning Gibbous, 71% of the Moon is Illuminated
May 19
Waning Gibbous
May 21
Last Quarter
May 28
New
Jun 5
First Quarter
Jun 13
Full

Hourly Weather History & Observations

Time (EDT) Temp. Dew Point Humidity Pressure Visibility Wind Dir Wind Speed Gust Speed Precip Events Conditions
12:53 AM 50.0 °F 36.0 °F 59% 30.13 in 10.0 mi NNW 6.9 mph - N/A   Clear
1:53 AM 53.1 °F 34.0 °F 48% 30.12 in 10.0 mi NW 10.4 mph - N/A   Clear
2:53 AM 50.0 °F 34.0 °F 54% 30.13 in 10.0 mi NW 6.9 mph - N/A   Clear
3:53 AM 48.9 °F 33.1 °F 54% 30.14 in 10.0 mi NW 6.9 mph - N/A   Clear
4:53 AM 48.0 °F 34.0 °F 58% 30.15 in 10.0 mi NNW 6.9 mph - N/A   Clear
5:53 AM 46.9 °F 34.0 °F 61% 30.17 in 10.0 mi NNW 5.8 mph - N/A   Clear
6:53 AM 52.0 °F 36.0 °F 54% 30.19 in 10.0 mi NNW 9.2 mph - N/A   Clear
7:53 AM 55.9 °F 35.1 °F 45% 30.19 in 10.0 mi NNW 11.5 mph - N/A   Clear
9:53 AM 60.1 °F 33.1 °F 36% 30.17 in 10.0 mi NNW 15.0 mph 21.9 mph N/A   Clear
10:53 AM 64.0 °F 33.1 °F 31% 30.15 in 10.0 mi NNW 16.1 mph 25.3 mph N/A   Clear
11:53 AM 66.0 °F 35.1 °F 32% 30.14 in 10.0 mi NNW 15.0 mph 31.1 mph N/A   Clear
12:53 PM 66.9 °F 35.1 °F 31% 30.12 in 10.0 mi WNW 19.6 mph 34.5 mph N/A   Clear
2:53 PM 70.0 °F 35.1 °F 28% 30.07 in 10.0 mi West 18.4 mph 25.3 mph N/A   Partly Cloudy
3:53 PM 66.9 °F 34.0 °F 30% 30.07 in 10.0 mi NNW 15.0 mph 23.0 mph N/A   Mostly Cloudy
4:53 PM 66.0 °F 36.0 °F 33% 30.07 in 10.0 mi North 9.2 mph - 0.00 in Rain Light Rain
5:53 PM 64.0 °F 36.0 °F 35% 30.07 in 10.0 mi NNW 23.0 mph 33.4 mph 0.00 in Rain Light Rain
6:53 PM 64.9 °F 35.1 °F 33% 30.07 in 10.0 mi North 8.1 mph - 0.00 in   Mostly Cloudy
7:53 PM 62.1 °F 35.1 °F 37% 30.08 in 10.0 mi NW 4.6 mph - N/A   Overcast
8:53 PM 55.0 °F 39.0 °F 55% 30.09 in 10.0 mi Calm Calm - N/A   Mostly Cloudy
9:53 PM 50.0 °F 37.9 °F 63% 30.09 in 10.0 mi Calm Calm - N/A   Clear
10:53 PM 45.0 °F 36.0 °F 71% 30.09 in 10.0 mi Calm Calm - N/A   Clear
11:53 PM 42.1 °F 34.0 °F 73% 30.09 in 10.0 mi Calm Calm - N/A   Clear